Theta_e
308 307 308 308 308 309 309 309 309 310 310 311 311 311 311 311 311 311 311 311 311 310 310 309 311 311 310 310 309 309 309 310 311 311 313 315 314 315 315 312 311 311 311 312 312 312 313 313 313 314 317 319 319 319 318 319 319 319 327 329 325 326 322 319 322 322 321 319 317 316 317 317 317 316 316 316 316 316 316 316 317 315 316 316 316 319 319 319
307 307 308 308 308 308 309 309 309 310 310 310 310 310 310 311 310 310 310 310 310 309 310 310 311 311 310 310 309 309 309 310 311 311 313 317 317 316 315 311 311 311 311 312 312 313 314 314 314 314 316 317 319 319 318 318 317 321 326 325 329 327 317 316 318 316 319 318 316 317 316 316 317 316 315 316 315 316 316 316 316 316 316 316 316 318 318 318
307 307 308 308 308 308 309 309 309 310 310 310 310 310 310 310 310 310 310 309 310 309 310 310 311 311 310 310 309 309 309 309 311 312 313 317 317 315 313 311 311 311 311 312 313 314 315 315 314 315 315 316 319 319 319 319 317 320 324 326 329 323 316 316 316 316 318 317 316 316 316 316 316 315 315 316 315 315 316 316 316 316 316 316 316 316 317 316
308 307 308 308 308 308 309 309 309 309 310 310 310 310 310 310 310 310 310 310 310 310 310 310 311 311 310 310 309 309 310 310 311 312 314 317 315 313 312 311 311 312 312 312 313 315 314 315 314 314 315 316 317 318 318 319 317 318 325 330 324 318 319 318 315 317 317 317 317 316 316 316 316 316 315 315 315 314 315 315 316 316 316 315 315 315 315 314
309 308 307 308 308 308 309 309 309 310 310 310 310 310 310 310 310 310 310 310 310 310 310 310 311 311 310 309 309 309 311 312 313 313 315 316 314 312 312 312 312 312 312 312 312 314 315 315 314 314 314 315 316 317 318 318 318 318 319 322 318 316 320 317 315 317 316 317 317 316 316 316 316 316 316 315 316 317 315 316 316 316 316 315 315 315 315 315
309 308 307 308 308 308 309 309 309 310 310 310 310 310 310 310 310 311 310 310 311 310 310 310 311 311 310 309 309 310 312 313 315 315 315 315 314 312 312 312 312 312 312 312 312 313 315 314 314 314 314 315 316 316 317 317 317 319 317 316 316 317 319 316 316 317 317 317 316 316 316 316 316 316 317 315 316 318 317 317 317 316 317 316 316 315 315 315
309 308 307 307 308 308 309 309 309 310 310 310 310 310 310 310 311 311 311 311 310 310 311 310 311 311 310 309 308 309 311 314 315 315 315 314 313 313 312 312 312 312 312 312 312 313 314 314 314 314 314 315 315 315 317 317 316 319 317 315 316 316 316 316 316 316 316 317 316 316 316 316 317 316 317 316 316 317 317 317 317 317 317 317 317 316 315 316
309 308 307 307 308 308 308 309 309 310 310 310 310 310 310 310 310 311 311 310 310 310 310 310 311 311 310 309 309 310 310 313 315 314 314 313 313 313 312 312 313 313 313 313 313 313 314 314 314 314 315 314 315 316 316 315 315 316 316 315 316 315 315 315 315 315 316 316 316 316 316 316 316 317 316 316 317 316 317 317 316 317 317 317 317 316 316 316
309 308 307 307 308 308 308 309 309 310 310 310 310 310 310 310 311 311 310 310 310 310 310 311 310 310 310 308 310 313 311 313 315 313 313 313 313 313 312 312 313 313 313 314 314 315 315 315 315 314 315 315 315 316 315 315 315 314 316 316 315 315 315 315 315 315 315 315 316 316 316 316 316 316 317 317 317 317 317 316 316 317 316 317 316 316 316 315
309 308 307 307 307 308 308 309 309 310 310 310 310 310 311 311 311 310 310 310 310 310 310 310 310 310 309 308 310 313 315 315 315 313 312 313 313 313 312 312 313 313 314 315 314 316 315 315 316 315 316 316 315 315 315 316 317 316 316 316 316 315 315 315 315 315 316 315 315 317 317 316 316 316 318 317 317 317 317 317 316 317 316 316 316 316 316 316
309 308 308 307 308 308 309 309 309 310 310 310 310 310 310 310 310 310 310 310 310 310 310 310 310 310 308 309 310 312 316 316 315 313 312 313 313 312 312 312 313 314 315 314 314 315 315 316 316 316 316 316 316 316 316 317 317 316 316 316 315 316 316 316 316 315 316 316 315 316 316 315 316 317 318 317 317 318 316 317 317 316 317 316 316 316 316 316
309 308 308 307 308 308 309 309 309 309 310 310 310 310 310 310 310 310 310 310 310 310 309 309 310 309 308 308 309 312 316 315 313 312 312 313 312 312 312 312 313 313 315 314 313 314 315 315 315 316 315 314 316 316 316 317 317 316 317 319 316 315 317 316 315 315 316 317 316 316 315 317 317 317 318 316 317 318 316 317 317 316 317 316 316 316 316 316
309 308 308 308 308 308 308 309 309 309 310 310 310 310 310 310 309 309 309 309 310 309 309 309 309 309 308 309 310 311 314 315 312 312 312 312 312 312 312 312 313 313 314 314 313 314 314 315 315 316 316 315 316 315 316 317 317 317 316 319 318 316 319 318 315 316 316 316 317 315 316 321 322 317 316 316 316 317 317 317 317 317 317 316 316 316 316 316
309 309 308 308 308 308 308 309 309 309 310 310 310 310 310 309 308 308 309 309 309 308 308 309 309 308 308 312 314 312 313 314 312 312 312 312 312 312 312 312 313 313 314 313 313 314 314 315 315 316 317 316 315 315 317 316 317 319 316 320 323 319 321 319 314 316 317 316 317 316 316 322 322 316 315 317 316 317 317 317 317 317 317 317 317 317 317 317
309 309 308 308 308 308 308 309 309 309 310 310 310 309 308 307 307 307 307 308 308 307 308 308 308 309 308 312 315 313 314 313 312 312 312 312 312 312 313 314 314 314 314 313 314 314 314 315 315 316 316 315 317 317 318 318 318 319 318 322 323 320 322 321 314 315 317 316 315 316 318 321 319 315 316 317 316 317 317 317 317 317 317 317 317 317 317 318
309 309 308 308 307 307 308 308 309 309 309 309 308 307 307 306 306 306 307 306 307 307 308 308 308 310 311 312 314 314 314 313 312 312 312 312 312 313 314 315 315 315 314 314 314 314 314 315 315 316 316 316 320 323 323 321 322 322 321 323 323 320 321 321 317 315 316 317 316 315 318 321 319 316 317 317 316 317 317 317 317 317 317 317 317 318 318 318
309 308 308 308 307 307 308 308 308 308 308 307 306 306 306 306 306 306 306 306 307 307 307 309 309 309 311 313 314 314 313 314 312 312 312 312 312 313 314 315 315 315 315 315 315 314 315 316 316 316 315 317 320 326 327 321 321 323 319 321 324 321 319 322 321 316 315 317 317 316 317 320 319 315 316 317 317 317 317 317 318 317 317 318 318 318 318 318
309 308 308 307 307 307 307 307 307 307 306 306 306 306 306 306 306 306 306 306 307 307 308 311 309 310 311 312 314 314 313 314 312 311 312 312 313 313 314 315 315 316 316 315 316 316 316 314 317 320 317 316 318 324 332 327 323 325 321 320 323 321 320 323 322 316 316 317 317 318 317 319 319 315 314 316 317 317 317 317 317 318 318 318 318 318 319 318
308 308 307 307 307 307 307 307 306 306 306 306 306 307 306 306 306 306 306 306 307 308 310 311 310 312 313 311 313 314 313 313 312 312 312 312 314 313 315 315 315 317 315 317 317 315 316 315 318 323 318 317 318 320 331 330 324 326 325 324 325 322 319 319 318 315 315 317 318 319 318 318 318 316 314 315 316 315 316 317 317 317 317 317 318 318 319 318
308 307 306 306 306 306 307 306 306 306 307 307 307 307 307 308 309 309 308 308 309 311 312 311 310 312 313 311 313 315 313 313 312 311 312 313 314 315 315 316 316 317 316 320 319 314 320 323 322 327 324 320 320 319 323 323 319 322 325 324 323 322 318 317 318 316 313 316 320 321 319 317 316 315 313 313 315 314 313 315 316 317 318 317 318 318 318 318
307 306 306 306 306 306 307 306 307 307 308 308 307 307 308 308 311 311 309 308 309 311 312 311 311 313 313 312 314 314 313 313 313 312 312 313 315 315 316 316 316 318 317 318 318 316 324 327 326 332 328 320 319 319 320 319 319 323 325 323 322 323 318 316 318 317 313 315 320 321 318 316 315 314 313 312 314 314 313 314 315 316 317 317 318 318 318 318
306 307 307 307 306 307 307 307 308 308 308 307 307 309 309 308 311 311 309 308 308 310 312 311 311 313 314 313 314 314 312 314 314 313 313 314 315 315 316 317 318 320 317 316 318 319 322 327 330 327 319 316 318 319 320 321 324 326 325 323 324 324 319 316 318 318 316 316 320 322 318 316 315 314 312 311 313 314 314 315 316 317 317 317 318 318 317 317
308 307 307 307 307 307 307 308 308 308 308 307 307 311 311 308 312 312 309 310 309 310 311 312 312 313 314 314 313 313 312 313 315 314 312 313 315 315 316 316 318 321 318 318 322 320 319 324 325 317 314 317 319 319 322 322 323 327 325 323 325 325 319 318 319 317 316 316 317 321 320 317 316 318 317 313 312 314 314 315 315 315 316 317 317 316 317 317
309 308 308 308 307 307 308 308 308 308 307 306 308 311 310 309 312 312 310 311 312 312 311 311 312 312 313 314 313 314 313 313 314 314 313 314 315 315 315 315 317 319 318 320 322 321 321 320 315 313 317 324 320 320 326 323 319 324 328 327 326 324 320 319 320 319 320 320 319 320 321 323 324 324 323 317 313 314 315 315 315 316 316 316 316 316 317 317
310 309 309 308 308 308 308 308 308 308 307 306 309 310 309 310 312 310 311 312 312 313 311 311 312 312 313 313 312 314 315 314 315 313 312 314 315 315 315 314 315 318 319 319 319 320 320 315 314 316 320 327 325 321 326 326 320 319 324 325 323 324 323 322 324 323 323 323 321 320 320 327 331 324 319 316 313 314 313 313 315 317 317 316 317 317 317 317
312 310 310 309 309 309 308 309 308 308 307 306 308 309 308 310 311 309 312 314 314 312 310 311 312 311 312 313 313 314 314 315 316 314 313 314 315 315 316 315 315 317 317 317 316 317 318 314 318 324 324 328 327 320 322 326 322 316 319 323 326 331 328 325 325 321 320 321 320 319 320 324 323 316 315 316 315 316 314 311 312 314 316 317 317 318 318 318
314 312 311 310 310 310 310 311 310 308 308 307 307 308 308 309 310 310 312 315 315 313 310 310 310 311 313 313 313 313 314 317 316 314 313 315 316 314 316 316 314 315 314 316 317 316 317 317 320 326 327 327 325 321 320 323 323 320 320 324 330 332 326 326 327 320 321 323 323 325 323 321 320 314 315 317 316 319 319 318 315 312 314 316 316 318 317 318
314 313 313 311 312 312 313 315 313 308 309 308 307 307 307 309 309 311 315 314 313 312 310 309 310 312 313 312 312 313 315 316 316 315 314 315 316 314 315 315 316 318 314 315 321 317 316 321 323 325 326 326 326 325 323 322 323 323 322 324 330 330 327 332 332 326 324 321 323 328 321 317 326 324 317 317 317 319 321 322 317 312 313 315 315 317 317 318
316 315 314 314 314 314 316 317 313 310 311 310 308 306 307 308 309 312 315 312 311 312 311 310 311 312 313 312 312 312 313 314 315 316 314 315 316 314 314 314 315 317 312 315 324 320 315 319 320 323 325 325 324 322 323 326 323 320 320 325 330 330 330 332 331 327 323 318 321 328 321 314 324 329 321 316 318 321 323 321 315 313 316 317 316 317 319 319
319 318 316 317 317 315 317 317 313 312 313 311 309 307 306 309 311 311 310 311 314 314 309 309 311 313 313 313 312 312 314 315 315 315 314 315 316 313 315 314 313 319 319 321 325 320 314 313 314 319 320 319 320 317 318 322 319 317 324 328 328 331 332 332 331 324 317 318 323 327 323 315 319 329 326 318 319 322 322 320 318 318 319 318 319 319 319 319
319 320 319 319 319 317 317 317 315 315 315 313 310 306 308 313 315 311 308 311 318 315 308 309 312 312 312 313 312 312 314 315 314 314 314 315 315 313 314 314 316 323 324 322 322 318 317 316 314 315 314 314 317 317 316 318 318 321 329 328 322 328 333 330 328 321 314 320 324 324 323 317 316 326 324 318 320 321 318 319 323 322 318 317 319 318 317 317
317 319 319 320 320 318 317 318 318 318 316 314 309 306 311 314 314 314 313 312 316 316 312 311 313 312 311 312 312 313 317 317 313 313 316 317 316 316 315 316 321 323 319 319 320 318 320 322 317 314 314 315 319 321 318 321 325 325 325 322 316 319 324 324 324 323 320 320 320 320 322 318 317 321 319 320 324 320 316 317 321 320 317 317 318 317 317 317
314 315 317 318 320 319 318 318 319 319 317 312 309 310 315 314 311 314 316 314 315 316 314 313 313 312 311 312 312 313 316 318 314 313 315 316 316 315 316 318 319 320 321 321 320 319 321 322 318 315 315 315 318 320 317 319 325 322 319 320 319 318 318 319 320 320 322 322 319 317 318 320 321 320 319 322 320 316 315 315 317 317 316 318 317 316 317 316
312 312 313 315 316 318 319 318 319 320 316 309 310 314 315 312 311 313 314 314 315 316 316 314 312 311 311 312 313 313 315 316 315 314 315 316 316 315 315 315 314 319 324 320 318 319 319 321 320 317 316 317 317 318 318 321 321 320 321 320 319 322 323 322 321 320 322 324 320 316 317 323 324 320 319 317 313 314 315 314 315 315 316 317 316 316 316 315
311 311 312 313 313 314 316 318 319 320 314 310 312 314 311 309 312 313 313 315 318 318 316 314 312 311 312 314 315 313 314 317 315 315 317 316 316 316 316 314 313 317 321 317 316 317 315 320 322 316 314 317 318 315 315 319 318 318 321 319 317 323 322 322 324 323 323 322 319 318 322 325 322 319 318 314 313 314 313 313 315 314 315 315 315 315 315 315
310 311 311 313 313 313 314 315 316 317 313 311 313 312 310 313 317 316 315 317 318 317 315 312 313 313 312 315 316 312 314 318 317 315 317 315 315 316 316 315 313 314 315 315 318 319 316 319 320 315 313 314 315 315 313 315 317 317 318 318 321 323 320 319 320 318 316 316 317 318 321 320 317 316 316 315 315 314 312 313 313 313 316 315 314 315 315 316
309 310 311 313 314 314 314 313 313 315 313 313 312 311 313 318 319 319 319 318 316 315 315 314 315 314 313 316 318 314 315 319 317 315 317 316 316 316 315 315 313 312 313 313 316 321 322 322 318 316 317 314 312 314 313 312 316 320 320 318 319 320 321 324 322 318 316 315 317 318 316 315 315 315 317 315 314 315 316 315 313 313 315 314 315 316 315 317
308 309 310 312 314 315 314 312 312 314 313 313 312 312 315 318 316 316 317 317 316 315 316 317 317 315 315 316 317 316 315 317 317 316 317 316 317 317 315 315 314 312 312 311 313 319 321 319 316 315 317 316 314 316 316 314 315 319 320 317 319 323 323 323 320 319 318 316 319 320 315 314 315 314 315 315 315 317 318 318 316 315 314 313 315 316 316 316
307 308 309 310 312 315 314 313 314 314 312 312 313 312 315 316 313 312 314 316 317 316 316 319 320 316 316 316 317 316 315 315 317 317 317 315 316 316 314 314 315 312 310 311 314 319 319 316 315 314 315 316 316 317 319 319 316 317 316 314 320 325 325 323 320 319 320 317 317 318 314 314 315 314 315 316 318 317 316 320 319 314 313 314 315 315 316 316
305 307 308 309 310 313 314 314 315 313 312 312 312 312 313 314 313 311 312 314 316 317 318 322 321 317 316 316 316 316 315 316 317 317 316 315 315 316 314 313 316 314 311 310 314 318 317 314 315 315 315 315 317 318 318 319 319 319 318 317 318 318 319 322 320 319 320 319 317 315 313 314 313 314 317 317 318 318 317 321 319 313 313 315 314 315 316 316
305 306 308 309 309 310 312 313 314 312 310 310 311 311 312 313 314 313 312 313 314 316 317 320 321 320 319 317 316 316 315 317 317 316 316 314 314 317 316 314 315 316 313 312 315 316 314 316 320 319 316 318 321 320 317 317 318 318 318 318 318 317 318 319 318 318 318 320 322 318 314 314 313 314 317 317 318 318 315 317 317 314 314 315 315 315 315 316
305 305 308 310 308 310 311 311 312 311 309 309 310 311 311 313 315 315 314 313 314 315 315 317 319 321 322 321 319 318 316 316 317 317 316 315 315 318 317 314 314 315 314 314 315 314 315 319 323 321 318 318 320 319 314 314 316 317 316 316 316 317 319 318 320 322 319 319 323 320 316 315 314 316 319 316 315 315 314 314 314 314 315 315 315 315 315 316
304 305 308 309 308 310 311 311 312 311 310 311 310 311 312 313 314 316 316 315 315 316 316 317 318 318 319 320 320 319 316 315 316 317 317 316 315 316 315 314 314 315 315 316 316 313 314 318 318 317 317 318 320 320 316 315 317 317 318 317 316 319 320 321 325 325 322 321 320 317 317 315 314 317 316 312 312 313 314 315 314 314 316 315 315 315 315 316
302 303 306 309 310 310 310 311 311 311 311 312 312 312 312 314 314 315 316 315 315 316 316 317 317 317 318 319 318 318 317 316 317 317 318 317 316 315 314 314 315 316 315 317 317 314 315 319 318 317 317 319 322 322 318 317 318 319 322 320 317 318 319 319 321 319 319 322 320 317 317 315 315 319 315 313 316 314 312 314 314 315 315 315 315 315 315 316
301 302 303 306 310 311 310 310 310 310 311 312 313 313 313 313 314 314 315 315 315 315 316 316 316 316 317 318 316 316 316 316 318 318 319 320 318 316 313 313 315 315 314 316 314 314 320 322 318 316 317 317 320 321 320 320 318 318 322 322 317 317 318 317 318 317 317 321 320 317 316 314 314 316 315 317 319 315 312 313 314 314 315 314 315 315 315 315
301 302 302 303 307 309 310 310 310 310 311 312 312 313 313 313 314 314 315 315 314 314 315 316 315 315 317 317 316 316 315 315 317 317 319 321 320 317 313 312 313 312 312 314 312 315 323 322 316 315 315 316 320 323 323 321 319 318 320 320 318 318 317 316 318 318 316 316 316 315 315 315 314 314 313 315 318 317 313 312 313 314 314 314 314 314 315 315
301 302 302 303 305 307 307 309 310 310 311 311 312 312 312 313 314 314 314 314 314 314 315 315 315 315 317 316 316 316 316 316 316 316 317 318 319 318 314 312 312 311 312 312 312 317 322 320 316 316 316 318 322 323 321 318 317 318 318 318 319 319 318 317 316 316 315 315 315 315 315 315 314 313 313 314 317 317 313 311 313 314 313 314 314 314 314 315
301 302 301 302 305 306 306 307 309 309 309 310 311 312 312 312 313 313 314 313 314 314 315 316 315 315 316 316 316 316 316 316 316 316 316 316 317 318 317 315 313 311 313 313 313 318 322 319 317 317 317 319 320 320 321 319 318 318 317 317 318 318 318 318 316 316 317 317 316 315 316 317 314 313 313 314 314 314 312 312 313 313 313 314 314 314 315 314
301 301 301 302 304 304 304 306 308 308 308 309 310 311 312 312 312 313 313 313 314 314 314 315 315 315 316 316 316 316 316 317 316 316 315 314 315 317 318 318 314 309 313 318 315 315 318 319 318 318 317 318 318 318 320 319 318 319 318 317 318 318 317 317 316 316 317 318 317 316 317 317 314 314 314 313 313 313 313 314 314 313 314 314 314 314 314 314
300 301 301 302 303 302 302 305 307 308 308 308 309 310 310 312 312 312 313 313 314 314 313 314 315 315 316 316 316 316 316 316 317 316 315 314 315 317 317 318 317 312 313 318 317 314 315 317 318 318 317 317 316 316 317 317 317 318 319 319 319 318 316 315 315 315 316 317 317 316 316 316 314 314 314 313 313 314 313 313 314 314 314 313 313 314 314 314
300 301 301 302 303 302 302 304 306 307 307 307 308 308 309 311 311 311 312 312 313 313 313 314 314 314 315 315 315 315 315 315 316 316 315 314 315 317 316 316 317 316 315 316 316 314 314 315 315 316 317 317 316 316 317 316 316 317 318 319 318 317 317 316 316 317 317 316 316 316 317 316 314 313 314 313 313 313 313 313 313 314 313 313 313 314 314 315
299 300 301 301 302 302 303 304 305 306 306 306 306 307 308 309 309 310 311 311 311 312 313 313 313 314 314 314 314 314 314 314 314 314 314 314 314 315 315 314 314 315 315 315 314 312 312 313 314 315 317 317 316 317 317 316 316 318 318 317 316 316 317 316 317 318 316 315 316 317 316 315 315 315 315 315 314 313 313 313 313 313 313 313 313 314 314 314
Wind_Speed
20 20 20 20 22 21 20 19 18 18 17 16 15 14 13 12 11 11 10 10 10 10 10 11 12 11 10 8 7 7 7 8 7 8 10 9 9 7 6 6 7 8 9 8 7 7 7 7 8 11 12 8 4 5 7 6 5 3 2 3 2 2 0 3 4 5 6 4 6 12 12 8 5 6 8 7 7 9 8 7 7 6 7 5 4 8 9 9
20 20 20 20 21 22 20 19 19 18 18 17 15 14 13 13 12 12 11 11 11 11 11 11 12 11 10 7 7 7 6 8 7 9 12 8 8 8 6 7 8 9 9 8 8 8 7 7 7 9 11 8 5 6 6 5 6 3 2 3 3 3 1 5 1 5 6 8 11 14 14 8 8 12 10 5 5 9 7 6 7 7 8 7 8 10 9 10
19 20 21 21 20 21 21 20 19 19 18 17 16 15 14 13 13 12 12 11 11 11 11 11 12 11 10 8 7 6 6 8 7 10 12 8 7 8 7 8 8 9 9 9 10 10 7 5 6 9 9 7 6 7 6 4 5 3 3 3 4 5 2 6 5 5 7 15 14 12 12 7 8 14 11 6 5 7 8 9 9 10 11 12 13 13 12 11
18 19 20 21 21 22 22 21 20 19 18 17 16 15 14 14 13 13 12 11 11 11 11 11 12 12 10 8 7 6 6 5 7 10 11 8 6 8 9 8 9 9 9 10 10 9 6 4 6 10 8 6 7 7 6 6 5 2 3 4 4 4 3 4 5 7 8 16 15 12 9 6 9 13 11 8 5 4 11 15 13 12 15 15 16 16 14 12
17 18 20 21 22 22 22 22 21 20 18 18 16 15 14 14 13 13 12 12 12 11 11 12 12 12 10 9 7 8 7 2 5 10 9 8 7 9 9 8 9 9 9 10 10 8 7 6 5 8 6 4 6 5 5 9 7 2 2 4 2 3 3 2 2 7 8 12 13 11 7 7 11 11 11 10 6 4 11 17 16 13 13 14 16 17 17 15
17 18 20 22 22 22 22 22 20 20 19 18 17 16 15 14 14 13 13 12 12 12 12 12 12 12 11 9 8 9 9 3 2 8 9 9 8 9 9 8 8 9 9 9 8 9 9 7 3 5 4 2 6 5 5 10 9 2 1 4 5 3 4 2 3 6 7 10 10 7 6 9 9 6 10 12 9 6 6 8 10 11 13 14 15 17 18 17
18 18 20 22 23 23 22 21 20 19 19 19 18 17 16 15 14 13 13 12 12 12 12 13 13 13 11 10 8 9 11 6 1 5 10 10 9 9 9 8 8 8 9 9 8 9 9 7 4 5 3 2 5 5 6 10 8 4 1 2 5 4 5 3 4 6 6 8 8 7 7 7 7 4 6 11 13 10 6 4 4 5 10 15 15 15 15 15
19 19 21 21 22 21 21 20 20 19 18 18 17 17 16 15 14 13 13 13 13 13 13 13 13 13 11 10 8 7 10 9 2 4 10 11 10 11 10 9 9 8 9 9 8 8 6 6 6 7 2 1 6 6 7 6 2 3 2 2 5 4 4 3 3 6 5 6 6 6 5 4 5 4 5 11 14 13 12 10 8 5 8 14 15 14 14 13
19 20 21 21 20 20 20 20 20 19 18 16 16 15 15 14 14 13 13 13 13 13 13 13 13 14 12 10 8 4 7 9 5 5 10 12 12 13 12 11 9 8 10 10 8 7 6 4 4 6 2 2 7 7 6 5 1 2 5 6 6 4 4 5 3 5 4 3 4 4 2 3 4 3 7 14 15 16 16 13 12 10 10 13 13 14 13 13
18 19 20 20 20 20 20 20 20 19 17 16 15 14 14 14 14 13 13 13 13 13 14 14 14 14 12 11 7 4 6 7 7 7 11 13 14 14 12 11 9 9 10 9 9 8 7 4 1 3 1 2 6 5 4 5 1 5 10 8 8 6 5 4 2 4 5 2 3 3 1 3 4 2 6 12 10 14 19 16 14 14 14 14 14 15 14 14
17 19 20 20 21 21 21 20 19 18 17 16 15 14 14 13 13 13 13 13 14 14 14 14 15 14 12 11 9 6 4 5 8 10 12 14 14 13 11 10 9 9 8 8 9 9 8 4 2 3 2 2 4 4 4 6 6 12 14 8 5 4 3 3 4 5 4 2 3 2 1 2 3 2 11 16 8 10 18 19 18 17 16 15 15 16 16 17
17 19 21 21 22 22 21 21 20 18 18 17 16 15 14 13 13 13 13 14 14 14 14 15 15 14 12 10 11 9 3 4 9 11 13 14 13 12 10 9 9 7 7 7 8 8 8 5 3 3 3 5 4 3 4 6 8 12 10 5 0 2 1 5 6 6 5 2 3 2 2 3 3 8 19 18 10 9 15 19 20 19 17 16 16 17 17 17
17 20 21 22 22 23 22 21 20 19 18 17 15 14 13 13 13 13 13 14 14 14 15 15 15 14 11 8 10 11 5 5 11 13 14 14 12 11 9 8 8 7 7 7 6 7 8 5 5 4 5 6 4 4 5 6 8 6 4 4 2 5 4 7 6 6 5 3 3 3 1 6 5 15 20 14 12 12 14 19 20 19 18 17 16 17 17 16
18 20 21 22 22 23 23 22 20 19 18 16 14 13 12 12 13 13 13 14 14 14 15 15 14 13 11 6 6 10 8 7 12 14 14 14 11 9 8 7 7 8 7 6 6 7 8 7 6 6 7 7 7 8 6 4 4 3 1 3 3 2 4 6 4 6 4 3 4 5 1 6 7 14 15 9 13 15 17 19 18 18 17 17 16 16 16 16
19 20 21 21 21 22 23 22 21 19 18 16 14 13 12 12 12 13 14 14 14 15 15 15 14 12 9 5 4 7 9 10 14 15 14 13 11 9 7 7 7 7 7 7 7 8 8 9 7 6 8 9 9 8 3 3 2 2 3 3 3 3 3 6 2 8 5 3 4 5 1 6 8 11 8 4 13 14 17 17 15 17 16 17 18 18 18 18
19 19 20 20 20 21 21 21 20 19 17 15 14 13 13 12 12 13 13 13 14 14 14 13 14 11 5 4 5 7 11 13 14 15 14 12 10 9 8 7 7 7 8 8 8 8 9 8 7 7 8 7 6 5 4 4 4 4 3 2 3 2 2 4 2 4 4 2 2 2 2 4 4 4 2 4 10 12 14 14 14 16 16 17 19 20 21 19
19 20 19 19 19 20 20 19 18 18 16 15 14 13 13 12 13 13 13 14 13 13 13 11 12 10 4 4 7 9 13 14 15 15 14 12 10 9 9 8 8 8 9 9 8 9 9 7 7 6 3 2 3 5 5 3 3 3 1 1 4 3 3 2 3 2 3 4 1 2 2 6 7 9 9 6 8 10 13 14 15 15 16 17 18 20 22 22
19 20 20 20 19 20 19 18 18 17 16 15 15 14 14 14 13 13 13 14 14 13 11 10 11 7 5 8 9 10 13 14 16 16 14 13 11 11 11 9 10 9 10 9 6 7 6 4 5 3 2 2 2 5 4 2 4 3 3 2 3 3 4 3 3 2 2 3 2 2 3 9 11 13 18 17 14 14 17 20 21 20 19 19 19 22 23 24
19 20 20 21 20 20 19 18 17 16 16 16 15 15 15 14 14 13 14 16 15 10 5 11 15 5 3 12 13 11 14 14 15 17 16 14 12 12 11 11 11 9 7 5 2 4 5 3 4 3 1 3 3 5 6 7 7 6 6 5 3 3 2 3 3 3 0 2 3 5 6 9 10 11 14 20 22 20 22 25 25 25 24 23 22 24 25 26
19 19 20 20 20 20 19 18 17 17 17 16 18 18 15 14 10 6 12 16 16 7 0 13 20 5 1 14 18 14 15 15 16 18 17 16 15 13 12 11 9 5 2 3 2 2 4 4 2 3 6 7 6 7 7 5 6 7 5 4 3 4 1 3 2 5 2 2 5 7 7 9 10 10 12 20 22 17 20 22 25 28 27 27 27 27 29 30
19 19 19 20 20 20 19 18 17 18 19 18 20 18 13 15 8 4 12 13 14 8 1 12 20 7 1 11 19 17 15 14 15 20 18 17 16 13 10 9 6 2 1 4 4 1 4 3 4 7 8 8 6 6 6 4 6 6 5 5 2 1 2 2 2 5 3 2 5 4 5 10 10 10 14 17 15 14 19 21 24 29 29 29 29 30 32 32
19 19 20 20 20 20 19 18 17 19 19 19 22 15 12 18 11 9 14 8 13 13 3 10 17 10 4 9 16 16 13 10 11 18 19 19 17 11 9 7 4 3 2 4 5 4 4 1 7 8 6 4 3 5 8 6 6 5 4 4 2 1 2 2 3 4 1 2 4 5 6 11 10 10 14 17 16 19 24 25 27 28 28 29 31 32 33 33
18 20 20 20 20 20 19 19 18 19 20 21 22 13 12 19 12 12 15 5 8 16 10 10 14 13 10 11 17 16 12 8 9 17 20 20 18 12 10 8 4 4 3 4 5 4 2 4 8 5 4 7 6 5 8 6 5 4 4 5 2 3 1 2 4 4 1 1 2 4 6 10 9 6 10 18 21 21 23 24 26 26 27 30 31 33 34 34
16 19 19 19 20 19 19 19 19 19 20 22 21 12 12 18 11 12 15 2 2 12 13 12 11 14 14 12 16 15 11 9 9 18 22 21 18 11 10 9 5 5 4 5 8 6 4 6 4 3 5 7 6 5 7 6 2 1 3 6 3 2 3 2 2 3 3 3 3 4 6 8 5 4 6 10 10 12 15 16 19 23 25 28 29 31 32 32
15 16 17 19 19 18 18 18 19 19 20 23 21 11 11 15 10 12 12 1 1 5 10 13 10 11 15 12 16 14 10 8 9 17 24 22 18 10 7 9 6 4 6 6 8 5 5 5 1 4 5 6 7 3 3 6 2 3 1 5 5 5 5 1 3 5 5 5 4 4 4 6 5 5 8 7 6 8 12 10 15 20 20 23 28 29 29 28
15 16 16 17 17 18 17 15 17 19 19 23 23 13 11 11 8 11 10 3 2 3 5 11 10 10 13 13 18 15 7 5 8 18 24 20 17 11 5 6 4 4 7 6 4 2 2 1 2 6 5 7 7 2 2 5 6 1 3 4 5 7 6 4 4 4 1 3 4 4 3 5 8 8 8 6 6 10 11 10 17 23 22 24 28 28 26 25
15 16 16 16 17 17 14 12 16 19 17 20 24 17 10 8 8 10 7 5 3 5 6 8 9 11 12 14 20 14 4 7 9 16 23 18 15 12 6 4 3 3 5 4 2 2 2 3 4 5 6 6 6 2 3 6 8 2 4 5 6 8 6 4 6 3 2 3 5 3 4 2 8 9 5 2 6 9 10 11 15 21 23 24 26 27 25 22
14 15 15 15 15 15 13 12 14 17 17 17 23 23 12 7 8 8 6 3 2 5 6 7 8 11 13 17 20 10 8 14 9 11 22 18 13 10 4 5 6 5 3 6 4 4 1 5 4 5 5 3 4 3 4 7 6 5 5 5 6 7 6 5 6 2 1 2 5 4 2 2 6 9 4 1 4 8 10 12 12 14 18 19 20 21 18 14
14 14 14 13 14 13 12 12 15 17 18 17 19 22 15 10 8 6 4 1 3 3 3 8 10 11 14 16 13 8 11 10 4 10 21 16 11 7 3 5 7 6 2 5 6 3 0 4 5 6 5 3 4 2 2 5 4 4 4 6 5 5 5 5 5 3 3 2 5 5 3 2 5 8 6 3 2 6 9 9 8 9 10 8 9 9 8 7
18 16 14 13 14 14 12 12 17 17 16 16 17 19 17 11 6 5 3 3 2 2 3 8 9 10 15 11 4 5 7 3 5 14 14 9 9 7 5 5 4 5 3 6 4 1 2 1 1 3 4 5 6 3 3 4 6 7 6 7 6 6 5 4 3 4 3 3 6 7 7 4 4 6 5 3 3 6 6 5 3 3 4 7 7 6 5 4
20 21 19 16 16 16 13 13 15 15 14 14 17 20 17 7 3 4 5 2 2 2 3 4 4 8 15 11 5 4 4 3 7 12 7 4 6 3 4 4 4 5 3 4 3 4 5 2 0 1 3 6 7 5 7 6 6 7 5 5 4 4 4 5 5 4 0 5 6 5 3 4 5 6 5 6 6 6 3 0 0 2 7 11 8 5 2 2
14 18 21 23 21 17 14 14 13 13 12 14 20 23 14 3 1 4 4 1 1 3 4 4 3 6 10 8 6 5 4 3 5 7 5 4 4 4 4 5 4 4 1 3 1 3 3 2 2 2 1 4 7 5 5 6 5 5 5 6 4 2 3 3 3 1 3 6 4 3 2 3 6 6 6 9 10 7 4 5 3 2 5 6 3 2 2 5
10 11 13 19 23 21 17 14 13 13 12 17 23 18 8 3 5 7 4 2 2 3 5 5 5 7 9 7 5 5 4 3 5 5 3 4 5 5 3 4 5 4 2 5 3 1 2 5 1 3 1 4 7 6 3 1 0 4 5 6 5 3 1 3 4 1 4 5 4 3 2 3 4 3 8 11 12 10 3 3 4 3 2 2 4 3 5 9
9 8 8 12 16 19 19 16 14 12 14 22 21 9 4 5 7 7 6 4 1 2 3 5 7 8 8 5 5 6 4 1 6 5 3 5 5 5 5 5 4 3 4 4 3 5 3 4 4 5 3 8 8 6 8 6 4 5 4 6 6 5 5 4 4 3 4 3 3 3 1 3 2 3 7 9 11 15 13 8 5 3 4 3 4 5 10 12
9 9 10 10 10 14 18 18 15 13 18 22 13 4 7 8 5 5 6 4 1 3 3 6 9 8 5 2 3 7 3 1 6 5 4 6 5 6 6 5 6 4 5 4 2 3 4 5 6 3 4 12 10 6 8 7 2 3 3 5 4 5 5 3 3 5 3 1 3 2 3 5 4 5 9 9 12 15 17 15 13 14 13 10 11 13 11 8
12 12 11 10 10 12 14 16 13 13 19 18 8 4 8 5 3 4 4 4 4 5 7 7 5 5 5 2 3 6 2 2 5 4 3 4 3 6 6 5 9 8 6 6 2 2 3 4 4 2 1 7 6 4 5 4 3 2 2 4 5 5 7 4 2 0 3 2 4 2 5 5 3 7 10 8 10 10 11 15 18 21 21 18 17 14 10 8
13 14 13 13 13 12 13 13 11 12 16 13 7 7 4 1 2 2 2 2 7 10 9 5 3 4 6 3 4 7 3 2 5 4 3 3 2 6 6 5 9 12 10 8 4 2 5 2 4 2 2 4 1 3 3 2 4 5 4 6 3 2 3 4 1 3 2 3 4 2 6 5 2 5 4 2 0 4 5 8 11 15 17 17 14 10 11 13
12 13 14 16 15 14 14 12 11 13 10 6 7 7 2 1 1 1 4 2 5 8 6 5 4 4 6 5 4 6 5 4 5 5 4 4 4 7 9 5 8 15 16 12 5 2 5 3 4 1 2 4 2 3 1 4 2 5 4 4 4 2 1 2 3 2 1 3 4 4 5 4 5 6 1 3 0 4 7 7 7 10 13 11 7 8 11 14
11 10 9 14 17 16 14 14 16 17 10 2 6 6 1 0 4 2 2 5 3 3 4 5 4 3 5 6 5 5 5 6 7 6 4 4 4 7 12 9 7 15 20 15 6 2 3 3 4 1 1 2 3 2 5 1 2 2 2 2 2 3 4 3 3 3 3 3 4 4 3 4 7 6 7 6 5 5 7 6 4 5 3 2 6 10 12 14
9 6 5 10 15 16 14 16 18 15 7 2 4 2 1 1 5 9 5 3 4 2 2 3 2 4 5 5 6 6 4 5 8 6 4 6 5 4 9 11 5 9 18 16 8 2 2 3 4 2 3 0 1 4 7 7 4 2 3 4 2 1 2 2 2 3 4 4 3 3 5 8 6 5 8 8 6 6 6 1 2 1 2 6 11 13 13 14
8 4 3 8 12 14 14 13 9 6 3 2 3 2 2 1 3 8 7 3 1 3 2 1 2 4 5 5 6 6 5 4 6 6 3 5 5 3 7 13 9 7 10 10 7 4 3 3 4 1 1 3 6 6 7 11 11 7 7 8 7 5 4 2 3 2 2 4 5 4 6 12 5 6 7 7 6 7 7 4 2 5 9 12 15 14 12 13
8 2 3 9 11 14 14 8 3 3 3 3 4 4 6 4 3 4 4 5 3 1 2 1 1 2 2 3 4 5 6 5 5 6 4 6 7 4 7 16 18 15 11 7 7 8 5 4 4 3 3 5 7 6 4 8 6 3 3 5 5 5 6 6 6 4 1 3 3 4 4 12 4 7 6 6 5 4 4 2 6 7 9 10 10 9 9 11
7 3 5 9 12 14 12 4 2 4 2 4 6 6 8 7 4 3 3 4 4 3 1 1 0 1 1 1 2 4 6 5 6 8 5 5 7 4 5 13 19 15 9 5 5 5 4 3 3 2 3 3 4 5 3 1 1 2 3 3 4 4 5 5 5 4 3 4 4 3 6 12 2 4 2 4 3 5 5 4 5 4 6 8 8 9 12 14
7 4 6 10 14 16 11 3 4 6 4 5 7 6 9 9 7 6 4 4 5 4 3 2 0 1 1 2 2 2 2 3 5 6 5 4 5 1 3 7 16 11 6 6 7 8 6 3 4 3 1 3 4 4 4 3 1 3 3 4 6 6 5 3 2 2 2 6 8 5 7 11 2 4 4 5 4 3 4 6 6 6 7 9 10 12 15 17
5 3 4 9 17 19 11 3 4 6 6 6 6 7 9 6 9 14 10 6 7 4 2 4 3 3 2 2 3 1 2 0 2 2 2 2 2 2 8 3 8 7 3 5 10 12 8 3 5 6 6 7 4 4 4 3 2 2 3 6 8 9 10 5 2 3 5 9 8 6 9 13 8 2 3 6 6 5 7 8 9 10 10 11 14 17 21 24
4 3 3 5 12 15 11 6 4 3 5 8 6 6 9 5 6 15 15 9 10 10 5 4 5 5 2 2 3 2 2 1 2 1 1 1 1 2 7 8 7 6 4 4 7 8 4 3 7 9 9 10 7 6 6 5 6 6 7 8 8 9 11 8 4 6 10 8 6 9 12 15 18 14 4 5 5 4 4 5 8 10 13 17 23 29 32 33
3 2 4 5 4 8 8 7 7 3 4 9 6 4 10 9 3 8 12 9 11 13 7 3 6 6 5 6 5 4 3 1 2 1 1 1 1 2 4 7 9 7 5 4 3 4 4 3 6 8 8 7 6 4 5 8 10 11 10 11 10 10 11 11 10 12 9 5 8 13 12 12 22 19 4 2 6 5 1 5 11 14 18 24 30 34 36 35
6 2 5 8 5 3 5 8 10 7 4 5 5 4 8 11 7 6 8 7 8 11 6 3 7 10 10 11 8 4 5 5 3 4 3 2 1 2 4 4 6 7 5 4 5 4 5 3 2 3 4 5 4 2 4 6 5 5 7 10 10 11 13 15 18 16 9 7 12 12 9 11 21 15 1 3 8 8 8 16 22 21 23 28 31 33 33 30
9 6 6 9 6 3 7 10 11 10 7 4 4 5 8 12 12 9 7 4 5 9 8 5 8 12 11 11 10 7 6 7 6 7 5 4 4 2 1 1 2 7 6 4 4 4 3 1 0 3 2 4 4 2 4 5 2 2 3 7 8 11 14 15 16 14 7 7 13 11 6 12 16 10 6 10 13 15 20 25 26 28 31 30 28 28 28 27
11 7 5 5 5 4 6 8 10 9 9 6 5 5 6 10 14 10 7 8 7 6 9 11 10 10 9 9 9 8 9 9 8 7 7 6 4 5 4 3 2 3 5 3 3 4 2 0 2 4 2 6 3 3 1 4 3 2 4 6 7 9 9 9 9 7 5 9 13 11 10 14 12 6 13 22 20 16 21 26 27 31 32 25 21 22 24 27
17 10 4 3 3 4 4 4 7 6 6 7 7 7 7 8 11 9 7 12 13 9 10 14 11 7 7 9 8 8 9 9 6 6 11 11 8 7 6 5 5 3 1 2 2 3 2 1 2 4 2 7 4 4 5 3 5 2 8 13 14 9 5 5 5 6 8 10 10 8 9 12 9 3 11 24 21 13 18 26 30 32 26 18 18 22 25 28
25 18 9 2 2 3 2 2 5 6 6 9 11 11 9 7 6 7 6 11 17 18 19 19 12 7 6 9 13 16 14 9 5 5 10 12 9 8 7 7 10 9 4 4 3 2 3 3 1 2 3 5 2 4 4 3 4 5 11 15 14 11 8 7 6 8 9 8 5 7 9 11 10 6 10 17 17 15 20 27 32 30 21 17 21 27 30 33
Wind_Direction
182 183 184 180 174 174 177 177 178 180 180 183 184 185 190 190 191 195 202 207 213 213 209 204 198 196 194 193 194 193 194 188 189 187 182 186 191 189 195 205 189 179 178 173 163 149 143 136 141 145 150 158 165 186 192 202 192 161 101 101 212 239 67 273 224 169 140 148 175 177 176 155 156 167 141 130 132 138 146 153 150 155 164 163 145 147 156 170
186 185 185 183 177 174 176 179 179 181 181 183 184 187 192 193 195 198 202 207 211 211 206 203 197 196 195 194 193 192 194 189 194 192 184 184 193 202 208 195 182 178 179 172 163 157 147 132 132 142 155 171 174 173 178 190 184 166 114 130 219 206 50 342 213 141 122 153 173 179 182 173 182 178 162 168 166 152 149 157 169 162 160 170 166 166 176 178
190 189 186 184 182 176 175 180 181 182 182 183 184 188 191 193 197 198 201 204 206 208 205 202 198 196 196 195 191 188 192 191 200 198 192 194 199 204 201 187 180 179 180 176 173 170 160 144 157 165 169 187 185 173 173 174 186 192 113 133 241 205 125 17 48 88 130 158 165 177 187 190 190 178 171 185 176 172 180 174 177 184 184 186 182 181 186 187
194 194 191 187 185 180 178 180 182 183 183 183 184 187 191 194 197 198 200 201 203 205 202 202 199 197 199 195 187 185 183 192 210 204 198 204 203 196 189 185 184 183 184 183 184 182 171 149 172 185 187 203 189 177 185 179 185 192 129 168 230 183 123 11 50 69 116 153 163 169 162 156 175 179 181 176 152 218 220 201 200 206 201 199 196 194 194 196
199 196 194 192 189 184 182 182 182 183 183 182 182 186 191 195 198 199 200 199 200 201 200 201 199 199 200 196 191 182 167 162 220 204 198 202 201 193 187 190 189 187 186 187 192 193 183 155 156 189 198 209 173 162 199 189 176 144 130 149 144 132 119 330 76 79 101 142 155 152 132 145 167 179 187 178 167 223 230 219 220 224 215 206 201 200 200 202
204 200 196 196 193 189 185 184 184 184 185 183 181 185 190 196 198 199 200 200 200 199 199 199 198 199 200 200 195 184 177 159 190 192 193 196 197 190 187 192 188 187 185 184 191 187 181 165 157 196 196 185 171 164 187 189 182 149 142 97 77 121 136 154 156 107 108 132 138 131 135 156 160 182 197 201 208 197 196 208 215 220 221 217 206 201 203 204
206 202 199 198 196 193 188 185 185 186 188 185 183 186 190 196 197 199 200 200 200 197 197 198 198 198 198 202 199 195 204 217 177 182 190 191 192 185 179 182 179 182 180 177 183 177 173 173 202 215 181 145 182 174 163 179 180 148 190 105 87 107 123 139 170 139 127 130 132 136 149 162 168 191 208 219 223 210 201 210 218 200 200 210 206 199 201 206
206 203 200 198 198 196 190 187 186 188 192 191 187 188 192 197 198 199 199 200 200 197 195 196 197 197 197 202 200 203 219 230 252 181 184 185 183 177 172 171 167 170 171 172 171 161 175 194 222 223 210 221 184 166 153 153 161 143 159 144 108 96 112 124 156 156 146 132 135 149 166 186 196 214 232 232 226 217 221 234 244 228 180 193 200 195 195 202
207 205 201 197 196 196 193 190 188 189 193 195 192 192 194 198 200 200 200 200 199 196 194 195 197 197 197 201 198 208 225 227 236 188 179 180 177 174 172 166 159 160 164 172 170 164 191 199 221 220 230 224 164 150 149 137 268 187 144 134 120 107 121 119 128 147 147 152 159 172 220 242 217 241 258 245 233 219 222 230 237 233 201 195 200 200 200 206
208 206 203 196 191 194 195 192 191 190 192 195 195 196 197 199 201 201 200 199 199 197 193 194 196 195 196 199 194 207 227 222 224 199 177 174 175 174 172 165 158 158 159 169 178 181 190 173 128 179 156 107 132 122 134 135 143 136 126 122 123 129 136 134 150 144 138 145 160 168 260 256 202 190 257 245 232 217 219 224 228 226 219 214 214 216 220 227
209 205 201 195 189 191 194 194 193 190 191 195 196 199 200 201 202 201 201 199 199 196 193 194 194 195 197 198 197 205 222 213 207 194 173 169 172 172 172 172 167 166 164 167 181 188 188 181 134 152 152 115 114 94 109 119 120 128 122 109 119 136 143 165 161 159 160 131 153 154 17 257 155 171 248 242 232 216 214 217 221 221 222 221 223 227 232 238
207 204 200 195 190 189 192 193 193 191 192 194 197 200 201 204 203 201 200 197 197 196 195 194 192 194 195 200 212 214 230 213 195 183 171 168 171 174 176 180 179 176 174 167 176 187 182 181 178 160 139 142 128 91 112 118 123 133 123 100 61 28 359 215 182 173 183 150 170 117 359 282 189 222 250 250 234 214 207 211 215 219 223 225 230 234 236 242
204 202 200 197 192 190 191 192 192 192 193 194 198 201 202 205 202 200 198 195 196 196 195 194 192 193 190 200 219 219 238 218 190 180 173 173 175 178 182 189 191 186 185 176 168 174 174 172 166 137 114 133 133 117 130 120 124 142 123 103 83 17 325 236 199 178 174 157 181 112 305 277 244 236 257 264 229 209 201 208 213 220 227 229 232 234 238 242
202 202 201 198 195 192 191 191 192 191 192 194 196 200 203 204 202 198 196 194 195 195 194 193 191 191 189 199 221 219 229 208 189 185 179 178 178 179 184 186 188 186 189 187 166 163 167 160 147 120 109 125 127 123 112 81 113 142 88 69 84 83 291 269 192 169 161 192 191 108 196 264 273 265 280 272 221 208 204 207 212 220 227 230 233 235 240 244
201 202 202 200 196 193 193 190 190 190 189 191 191 195 197 198 199 196 194 193 193 193 193 193 192 187 190 209 219 208 208 197 190 189 184 182 181 177 169 164 168 173 174 174 165 159 160 159 152 122 111 123 125 118 75 25 28 64 92 328 343 144 263 306 210 176 173 216 198 118 195 266 281 288 306 236 208 208 211 215 215 222 229 235 241 241 243 250
200 199 201 201 194 192 194 190 188 189 187 186 186 187 189 191 192 190 191 189 188 190 188 192 193 182 177 209 204 190 191 191 188 188 186 182 179 167 150 148 150 154 157 157 156 157 159 153 141 124 120 130 125 101 64 38 349 4 106 224 280 167 237 306 303 199 168 154 218 186 218 270 290 299 354 169 199 210 219 228 228 232 240 240 245 246 244 248
196 195 196 195 191 192 193 189 188 186 184 183 181 179 179 180 181 183 184 182 182 183 181 187 189 186 212 211 188 186 188 188 184 185 183 177 174 160 145 137 132 138 141 142 148 152 153 140 128 131 126 116 105 93 73 39 313 317 50 210 243 192 168 240 288 265 131 112 238 258 228 253 270 279 280 248 220 224 232 244 248 247 247 243 241 243 242 243
192 189 188 187 188 191 190 188 185 183 181 178 175 173 172 171 173 176 177 176 171 164 170 176 168 177 242 210 185 189 190 185 181 180 177 172 169 159 147 131 126 132 130 131 138 141 141 121 110 107 36 25 85 100 104 192 196 197 194 201 258 217 173 207 250 261 101 101 252 274 264 259 265 273 273 267 259 249 249 255 260 258 254 249 241 238 241 241
188 184 182 184 187 188 188 185 183 181 177 173 171 167 165 163 163 168 172 172 164 153 171 179 166 158 241 192 185 188 185 180 176 175 174 169 165 160 146 132 135 134 126 124 118 138 132 86 79 93 164 215 197 144 162 194 170 162 174 161 168 187 234 249 249 283 80 111 250 244 247 259 265 271 271 271 268 256 252 256 257 256 254 251 243 239 239 241
179 180 180 181 183 185 185 183 181 179 174 172 169 162 157 155 143 154 175 176 172 160 128 181 178 175 87 175 181 178 172 172 175 175 173 168 163 155 142 139 144 125 114 151 152 166 118 91 142 189 195 210 214 178 171 171 135 127 121 106 145 154 280 274 259 303 353 111 253 246 249 263 266 271 270 271 273 261 250 248 248 251 251 249 245 243 244 245
170 175 177 178 180 181 182 181 179 178 175 174 170 161 159 162 147 160 178 182 189 183 65 177 184 191 105 175 179 169 159 164 177 177 173 169 162 152 149 148 130 96 229 149 126 91 87 110 212 218 206 203 207 174 137 104 89 93 103 81 32 148 200 242 245 293 347 79 268 285 292 273 263 267 270 268 268 256 245 239 241 246 247 248 248 249 251 254
167 170 173 176 179 180 180 179 180 180 178 176 171 162 165 173 172 177 172 179 202 203 216 177 186 195 171 172 177 167 155 153 174 180 174 168 165 162 163 148 114 150 189 107 94 47 57 190 239 232 203 152 121 113 102 88 85 81 97 93 13 261 198 290 313 295 8 123 273 335 328 281 265 258 263 260 251 251 250 243 244 246 246 248 251 254 257 259
167 168 172 176 177 179 179 178 181 183 180 177 173 164 165 175 180 179 171 154 198 206 216 186 187 194 174 164 173 171 162 155 172 180 175 171 171 170 162 148 134 160 150 114 124 100 93 242 244 224 145 98 70 74 88 77 76 85 104 112 254 266 157 271 297 289 260 179 273 341 320 283 279 272 262 259 255 259 261 254 253 252 251 253 256 259 261 262
169 170 173 176 177 179 179 180 182 183 183 181 176 166 164 174 178 176 174 127 170 200 208 194 186 195 187 172 175 175 167 167 176 178 177 175 170 164 166 164 143 146 177 162 140 144 204 252 244 115 86 98 94 66 84 90 43 343 133 139 212 244 144 199 287 316 327 346 352 12 329 291 304 331 291 276 272 274 276 267 259 255 253 255 258 259 259 261
171 175 176 175 177 179 178 182 185 184 186 184 180 162 152 170 172 173 175 73 14 195 200 195 190 199 197 186 181 172 155 160 172 178 179 177 168 156 172 177 154 167 204 171 133 155 232 261 192 110 71 84 103 92 122 130 95 322 235 170 182 163 137 106 11 24 25 344 321 44 1 291 305 318 284 293 316 296 293 284 265 262 256 251 252 255 257 259
168 177 180 177 176 177 176 179 185 187 188 189 187 162 135 152 152 167 168 50 333 207 172 186 190 193 194 188 175 156 141 173 169 176 177 176 174 160 157 174 150 184 196 164 134 167 221 247 99 124 110 83 87 102 204 138 107 307 248 177 150 126 111 85 53 49 63 270 285 72 99 267 301 298 259 269 294 287 293 286 268 265 257 248 249 254 258 261
167 174 179 181 177 173 168 171 184 188 187 193 195 180 147 133 135 155 143 35 289 190 147 176 184 184 187 178 167 151 145 172 151 170 173 172 181 171 166 182 134 188 188 125 136 232 144 106 71 92 97 89 100 145 226 136 115 224 236 155 123 104 114 121 91 88 216 256 321 18 119 206 292 285 242 240 296 296 292 281 269 264 258 253 252 256 260 264
165 170 175 180 176 170 165 169 180 183 186 195 197 194 186 151 141 145 115 50 219 154 142 176 170 175 176 167 168 154 138 151 139 174 175 170 179 171 176 195 167 190 176 119 178 257 124 155 170 129 96 105 161 218 216 130 114 235 220 141 126 117 124 118 98 93 346 13 320 313 118 176 269 281 289 307 298 293 278 267 269 276 274 264 257 256 257 258
167 166 166 166 165 167 171 173 172 176 187 193 192 195 191 165 146 123 95 136 170 119 134 164 159 170 166 158 165 145 131 146 133 168 174 173 176 167 162 190 177 179 128 102 166 240 47 173 185 140 125 177 194 252 219 138 131 204 163 91 72 75 80 77 96 98 34 14 261 243 183 206 265 281 295 319 294 267 268 272 278 294 292 268 247 237 229 235
186 179 165 159 167 174 176 176 173 173 181 185 187 186 175 160 137 116 158 209 165 105 111 151 163 167 156 145 151 144 129 118 118 142 162 174 169 162 140 140 135 137 59 42 100 250 341 104 137 119 143 173 149 72 37 106 128 125 92 64 44 27 38 44 61 80 51 285 256 232 201 199 266 277 262 250 230 233 264 303 316 358 68 121 149 165 182 227
194 195 184 180 187 187 182 180 173 169 172 176 176 170 160 144 92 138 189 206 113 113 109 143 169 159 158 153 151 157 105 71 138 139 143 160 160 154 136 131 73 76 32 25 54 325 347 49 264 109 123 125 109 60 30 52 95 98 79 79 60 353 13 17 2 53 144 255 264 265 222 178 235 263 249 253 257 242 247 312 150 76 103 120 132 151 172 277
191 199 194 193 197 195 191 187 171 163 168 168 164 161 149 107 177 203 203 140 137 184 161 169 183 161 163 152 144 157 117 111 170 154 141 149 167 182 170 176 146 90 257 204 153 326 328 265 253 73 107 142 109 69 24 12 34 75 92 98 90 332 6 357 304 182 226 247 262 302 321 205 234 246 253 272 273 246 180 145 178 167 127 125 141 199 286 313
195 201 197 193 196 196 197 195 178 167 162 158 160 156 128 113 205 215 212 187 190 181 150 146 151 152 151 142 156 163 115 137 182 170 151 141 167 206 237 225 176 133 181 183 146 152 285 305 306 88 302 202 148 125 132 275 156 131 136 133 136 146 145 252 258 260 262 260 276 309 308 265 277 264 239 250 262 263 248 172 208 211 220 239 198 211 308 314
206 219 209 196 197 195 197 200 189 173 160 157 157 146 133 185 210 201 200 217 162 97 108 123 129 142 154 158 180 167 108 136 175 150 132 134 155 206 238 247 214 115 112 152 159 170 194 289 217 172 199 187 179 178 163 150 164 181 152 135 156 162 165 205 210 212 247 271 291 297 268 207 221 272 243 246 273 285 294 292 279 279 271 238 211 271 307 305
209 224 219 211 208 196 196 200 189 167 162 160 151 145 181 198 218 192 188 199 145 71 84 117 123 139 175 197 187 178 148 181 180 145 144 166 174 192 195 212 204 160 134 163 204 166 174 250 235 219 177 171 179 192 156 122 125 230 132 118 183 191 156 158 189 183 184 298 291 259 231 212 213 272 269 264 271 278 288 297 303 301 292 281 279 296 309 305
206 211 216 217 213 204 201 200 189 170 167 160 147 190 198 199 202 180 180 179 165 128 113 118 118 141 178 183 192 201 173 128 169 156 175 192 198 195 194 206 197 185 169 168 193 156 152 269 280 1 128 177 174 173 153 142 181 197 147 179 213 178 131 127 258 307 89 257 269 212 248 281 326 287 271 261 263 278 298 297 289 288 289 290 296 318 348 354
205 205 211 211 208 212 205 194 187 179 171 161 169 199 194 171 189 183 302 191 152 138 130 142 156 151 167 173 187 194 173 118 162 169 188 202 231 200 198 226 201 191 190 181 201 193 152 236 302 73 183 244 199 125 92 50 131 136 187 212 192 89 90 111 223 344 42 252 271 232 247 281 322 273 290 68 191 280 281 272 271 272 273 276 289 331 3 357
202 204 209 209 207 211 205 195 187 174 159 153 194 203 152 89 234 37 6 1 133 130 134 163 163 145 166 176 184 184 167 159 178 184 180 193 238 199 181 207 203 197 198 185 194 231 147 198 295 46 181 274 1 119 108 0 76 139 185 189 125 123 238 124 163 207 193 242 276 277 262 259 221 225 195 106 176 296 288 284 282 269 264 267 295 344 351 347
195 198 211 212 205 204 201 195 183 164 139 127 208 211 172 228 272 279 10 3 29 119 156 183 166 139 170 170 159 170 175 173 176 182 178 184 231 206 182 189 201 199 195 179 181 235 134 180 260 317 218 301 17 154 189 247 349 50 97 129 113 139 170 173 172 167 165 200 254 278 290 255 228 186 160 196 245 285 286 296 289 257 260 4 6 352 342 344
181 181 216 212 203 206 199 187 181 165 138 173 202 205 60 38 275 263 267 352 22 65 164 207 164 150 175 172 154 166 180 174 173 182 195 187 209 236 194 187 184 190 189 182 185 195 118 190 228 308 332 326 188 212 181 167 170 157 155 182 200 96 114 187 195 138 144 167 212 256 272 262 239 149 160 201 223 222 222 197 82 98 36 357 350 354 354 352
162 155 218 198 195 206 190 171 175 161 114 177 188 188 206 182 274 267 256 203 107 35 77 148 139 146 159 164 169 174 165 161 175 184 206 196 197 246 206 189 175 159 170 181 196 194 181 187 171 173 284 203 226 239 192 182 184 175 180 191 188 165 132 163 239 253 145 178 189 181 265 272 240 148 172 191 187 181 161 121 39 330 322 327 341 350 348 336
159 140 193 183 188 195 182 158 151 142 124 188 184 176 193 202 248 259 231 187 184 353 37 91 136 143 138 154 179 170 155 166 185 184 201 210 196 205 209 192 179 166 158 173 202 191 161 117 132 182 219 212 242 261 214 202 209 208 210 189 171 163 145 159 212 239 178 226 212 135 259 275 237 128 146 161 168 188 180 253 299 316 324 331 337 329 322 323
166 154 163 181 192 187 177 166 161 164 176 181 170 172 182 187 209 226 197 182 180 168 176 247 111 141 137 109 148 159 157 174 189 186 197 210 203 222 235 198 181 167 155 169 194 178 148 114 141 209 315 330 311 321 347 12 178 241 250 165 141 178 172 158 181 183 160 212 216 149 244 265 270 86 111 149 182 256 262 283 306 338 346 340 329 320 324 325
173 171 163 184 193 184 179 191 179 187 199 160 157 182 191 191 197 196 187 190 188 156 150 200 201 148 171 76 82 167 182 179 190 192 185 186 201 250 355 195 184 170 161 183 180 171 179 178 141 138 351 336 336 337 330 328 201 207 227 182 175 181 162 132 144 151 200 215 197 179 236 255 253 74 64 88 87 4 10 27 14 1 349 338 330 328 327 321
169 191 192 200 199 193 194 205 179 186 188 173 176 188 188 196 203 199 193 185 192 180 158 193 178 143 139 73 70 342 315 173 171 183 147 146 234 15 29 55 169 161 160 182 170 166 175 189 157 160 198 214 215 209 215 226 186 214 230 194 189 179 169 173 166 173 227 225 199 192 237 257 256 190 59 40 38 3 345 347 340 334 337 334 327 324 318 313
169 203 212 208 210 210 213 214 194 178 176 185 195 188 188 201 206 198 195 187 191 191 182 182 164 141 141 151 164 218 297 32 75 29 93 94 299 338 29 45 83 84 60 109 143 151 151 203 189 188 208 207 198 210 204 157 151 198 214 193 190 191 182 173 161 197 220 224 219 224 234 258 265 254 261 2 340 307 308 320 319 323 325 320 313 308 303 299
184 209 194 170 206 229 230 219 205 195 178 184 185 181 193 200 192 191 198 200 196 192 188 175 165 165 178 188 196 217 223 164 94 197 179 126 295 316 22 49 56 36 22 58 84 115 123 216 209 194 214 208 180 195 180 157 176 200 202 194 192 191 184 182 202 217 209 200 240 237 221 244 263 262 261 9 294 291 338 305 298 301 303 302 299 296 293 292
206 256 216 187 183 204 213 212 201 200 208 190 184 184 191 198 200 188 195 207 199 192 192 193 189 191 189 186 192 206 205 202 209 212 184 137 225 337 10 32 41 22 15 41 34 71 135 210 222 162 214 214 169 108 103 137 180 193 185 198 200 193 190 197 214 220 190 185 242 239 192 221 257 269 253 190 265 287 297 294 295 295 291 289 289 289 290 294
221 264 244 211 214 203 196 193 182 192 215 207 202 205 190 197 204 196 175 170 195 200 199 204 205 203 197 187 185 192 194 195 211 219 197 166 181 173 45 321 12 23 30 54 28 37 116 207 68 106 255 247 177 108 65 92 70 16 184 196 199 204 207 209 222 229 207 221 254 258 234 242 259 280 287 266 275 290 292 293 293 289 285 283 284 289 293 298
215 236 247 239 254 246 206 178 163 185 212 211 222 231 208 203 206 201 179 170 181 192 195 208 211 199 196 192 188 200 201 191 199 207 186 169 180 176 173 202 204 26 29 52 16 18 68 295 30 74 311 275 215 179 154 118 115 296 273 250 230 219 218 224 234 241 238 248 259 270 276 269 264 279 288 283 284 288 289 288 284 280 282 286 291 294 296 298
210 211 235 313 282 242 224 179 163 177 201 205 215 218 220 219 202 190 190 195 194 181 184 204 206 183 195 207 206 217 209 187 179 184 183 187 193 186 183 177 160 140 77 127 94 32 75 148 21 71 222 260 240 209 225 164 125 212 262 257 247 233 215 213 213 210 217 233 254 273 271 267 266 256 277 284 286 282 279 280 280 281 286 297 302 300 299 299
212 212 224 280 318 239 224 173 167 182 198 206 212 210 214 226 194 172 191 207 203 197 195 198 189 168 193 207 210 220 217 193 161 151 179 190 183 162 159 155 153 156 163 149 135 118 133 147 136 134 197 252 231 179 193 142 130 220 240 240 239 237 233 230 232 228 214 202 223 247 246 258 276 272 265 279 284 277 275 278 282 287 297 310 309 304 300 298